Regional Weather Roundup
Issued by NWS Goodland, KS

Home | Current Version | Previous Version | Graphics & Text | Print | Product List | Glossary On
Versions: 1 2 3 4 5 6 7 8 9 10 11 12 13 14 15 16 17 18 19 20 21 22 23 24 25 26 27 28 29 30 31 32 33 34 35 36 37 38 39 40 41 42 43 44 45 46 47 48 49 50
000
ASUS43 KGLD 200608
RWRGLD

GOODLAND FORECAST AREA HOURLY WEATHER ROUNDUP
NATIONAL WEATHER SERVICE GOODLAND KS
1100 PM MST SUN FEB 19 2017

...OFFICIAL OBSERVATIONS...

CITY           SKY/WX    TMP DP  RH WIND       PRES   REMARKS
GOODLAND KS    PTCLDY    48  32  53 S13       29.65F
HILL CITY KS   CLOUDY    55  54  96 S10G16    29.70F
IMPERIAL NEB   PTCLDY    49  31  49 SE10      29.65R
MCCOOK NEB     PTCLDY    54  50  86 S10       29.65F
AKRON CO       CLEAR     47  33  58 NW23G37   29.65R
BURLINGTON CO  PTCLDY    47  32  56 S16       29.66S
LIMON CO       CLEAR     42  33  70 NW12      29.69R
$$

...UNOFFICIAL OBSERVATIONS...

CITY           SKY/WX    TMP DP  RH WIND       PRES   REMARKS
LENORA KS        N/A     53  32  45 SE9         N/A
NORTON KS      CLEAR     54  48  82 SE6       29.69F
SHARON SPRINGS   N/A     47  35  63 S12         N/A
TRENTON NEB      N/A     49  32  52 S8          N/A
KIT CARSON CO    N/A     44  30  59 MISG        N/A
YUMA CO        FAIR      46  32  57 S15G21    29.64R
$$




USA.gov is the U.S. government's official web portal to all federal, state and local government web resources and services.